sat.trackr.live / text

‹ back to catalog

ISS OBJECT XY

NORAD 66912 · 1998-067XY

PAYLOAD ACTIVE UNKNOWN

§ Identity

Operator
Country
TBD
Launch date
1998-11-20
Launch site
TYMSC
Launch vehicle
Mass (kg)
RCS (m²)

Purposes: station

External: N2YO · Heavens-Above · Gunter

§ Orbital elements

Epoch: 2026-06-29T08:20:23.927424Z

Period
88.66 min
Inclination
51.6040°
Eccentricity
0.0006307
Mean motion
16.24233034 rev/d
Perigee alt
203.9 km
Apogee alt
212.2 km
Semi-major
6,586.2 km
B*
1.0774e-3
RAAN
208.4573°
Arg perigee
344.7501°
Mean anomaly
15.3327°
Rev number
3,280

§ Raw data

ISS OBJECT XY1 66912U 98067XY  26180.34749916  .03033787  11989-4  10774-2 0  99982 66912  51.6040 208.4573 0006307 344.7501  15.3327 16.24233034 32803

JSON: /api/v1/satellites/66912 · /tle

For live sub-satellite position, see the globe view (requires WebGL).

§ Visibility from observer

Set your observer location to see the next 7 days of passes ≥ 10°. The values pass through the URL so the page stays shareable.

No JS? Fill the form by hand. The geolocation button needs JavaScript.